This demonstration page uses our WeatherBlox Daily Observations layout. Learn more.

Left ArrowRight Arrow

Hourly Observations for July 8, 2016

Temp ( °F °C ) Dew Point ( °F °C ) Humidity (%) Winds ( mph kmh ) Pressure ( in mb ) Visibility ( mi km ) Precip ( " mm )
12:15 am 00:15 Clear 65 18.5 62 16.8 90 90 NNE 5 7 29.94 1014 10 16 N/A
12:35 am 00:35 Clear 64 18 62 16.5 91 91 N 3 6 29.94 1014 10 16 N/A
12:55 am 00:55 Clear 63 17.4 61 16.1 92 92 N 5 7 29.94 1014 10 16 N/A
1:15 am 01:15 Clear 63 17.3 61 16 92 92 NNE 3 6 29.94 1014 10 16 N/A
1:35 am 01:35 Clear 63 17.2 61 16 93 93 NNE 3 6 29.94 1014 10 16 N/A
1:55 am 01:55 Clear 62 16.5 60 15.4 93 93 NNE 3 6 29.94 1014 10 16 N/A
2:15 am 02:15 Clear 62 16.5 60 15.5 94 94 N N/A 29.94 1014 10 16 N/A
2:35 am 02:35 Clear 62 16.4 59 15.1 92 92 N 3 6 29.97 1015 7 11 N/A
2:55 am 02:55 Clear 62 16.4 59 15.2 93 93 N N/A 29.97 1015 10 16 N/A
3:15 am 03:15 Clear 60 15.8 58 14.7 93 93 N N/A 29.97 1015 10 16 N/A
3:35 am 03:35 Clear 61 16 59 14.9 93 93 N N/A 29.97 1015 10 16 N/A
3:55 am 03:55 Clear 60 15.8 58 14.7 93 93 SSW 6 9 30.00 1016 10 16 N/A
4:15 am 04:15 Clear 61 16.1 59 15.1 94 94 N N/A 30.00 1016 10 16 N/A
4:35 am 04:35 Clear 61 16 59 15 94 94 N N/A 29.97 1015 7 11 N/A
4:55 am 04:55 Clear 61 15.9 59 14.9 94 94 N N/A 30.00 1016 7 11 N/A
5:15 am 05:15 Clear 60 15.8 59 15 95 95 N N/A 30.00 1016 7 11 N/A
5:35 am 05:35 Clear 61 16 59 15 94 94 NNE 5 7 30.00 1016 7 11 N/A
5:55 am 05:55 Clear 60 15.8 59 15 95 95 N N/A 30.00 1016 7 11 N/A
6:15 am 06:15 Clear with Mist and Fog 61 16 59 15 94 94 N 5 7 30.00 1016 5 8 N/A
6:35 am 06:35 Sunny with Mist and Fog 61 16.2 60 15.3 94 94 N 3 6 30.00 1016 5 8 N/A
6:55 am 06:55 Sunny with Mist and Fog 62 16.4 60 15.5 94 94 NW 5 7 30.00 1016 5 8 N/A
7:15 am 07:15 Sunny 62 16.7 60 15.8 94 94 N N/A 30.00 1016 7 11 N/A
7:35 am 07:35 Sunny with Mist and Fog 63 17.3 61 16.3 94 94 W 3 6 29.97 1015 5 8 N/A
7:55 am 07:55 Sunny with Mist and Fog 64 17.9 62 16.7 93 93 N N/A 29.97 1015 5 8 N/A
8:15 am 08:15 Sunny with Mist and Fog 65 18.4 63 17.2 93 93 N 3 6 29.97 1015 5 8 N/A
8:35 am 08:35 Sunny 66 19.1 63 17.2 89 89 N N/A 29.97 1015 10 16 N/A
8:55 am 08:55 Partly Cloudy 67 19.5 63 17.1 86 86 N N/A 30.00 1016 10 16 N/A
9:15 am 09:15 Partly Cloudy 68 20 64 17.7 87 87 E 6 9 29.97 1015 10 16 N/A
9:35 am 09:35 Sunny 69 20.5 64 17.7 84 84 E 3 6 29.94 1014 10 16 N/A
9:55 am 09:55 Sunny 71 21.5 64 18 81 81 SSE 7 11 29.94 1014 10 16 N/A
10:15 am 10:15 Sunny 71 21.8 65 18.2 80 80 E 3 6 29.94 1014 10 16 N/A
10:35 am 10:35 Sunny 72 22.1 65 18.4 80 80 E 7 11 29.94 1014 10 16 N/A
10:55 am 10:55 Sunny 73 22.9 65 18.6 77 77 E 7 11 29.94 1014 10 16 N/A
11:15 am 11:15 Sunny 75 23.7 67 19.3 76 76 ESE 5 7 29.91 1013 10 16 N/A
11:35 am 11:35 Sunny 76 24.6 67 19.4 73 73 SSE 8 13 29.91 1013 10 16 N/A
11:55 am 11:55 Sunny 78 25.5 68 20.1 72 72 SE 8 13 29.91 1013 10 16 N/A
12:15 pm 12:15 Sunny 79 26.1 69 20.8 73 73 SSE 8 13 29.91 1013 10 16 N/A
12:35 pm 12:35 Sunny 81 27 71 21.8 73 73 SSE 7 11 29.91 1013 10 16 N/A
12:55 pm 12:55 Partly Cloudy 82 27.5 71 21.7 71 71 S 12 19 29.88 1012 10 16 N/A
1:15 pm 13:15 Partly Cloudy 82 27.8 71 21.8 70 70 SSE 9 15 29.88 1012 10 16 N/A
1:35 pm 13:35 Mostly Cloudy with Thunderstorms 82 27.7 71 21.6 69 69 S 9 15 29.88 1012 10 16 N/A
1:55 pm 13:55 Mostly Cloudy 83 28.2 72 22 69 69 S 7 11 29.88 1012 10 16 N/A
2:15 pm 14:15 Mostly Cloudy 83 28.4 71 21.4 66 66 S 9 15 29.88 1012 10 16 N/A
2:35 pm 14:35 Mostly Cloudy 84 29.1 71 21.4 63 63 SSE 6 9 29.88 1012 10 16 N/A
2:55 pm 14:55 Partly Cloudy 84 29 71 21.7 65 65 SSE 7 11 29.88 1012 10 16 N/A
3:15 pm 15:15 Partly Cloudy 85 29.2 71 21.4 63 63 SSE 8 13 29.88 1012 10 16 N/A
3:35 pm 15:35 Sunny 84 29 71 21.5 64 64 SSE 12 19 29.88 1012 10 16 N/A
3:55 pm 15:55 Sunny 85 29.4 71 21.5 63 63 SSE 12 19 29.85 1011 10 16 N/A
4:10 pm 16:10 Sunny 86 29.8 71 21.7 62 62 SSE 9 15 29.85 1011 10 16 N/A
4:35 pm 16:35 Sunny 84 29.1 70 21.2 62 62 SSE 12 19 29.85 1011 10 16 N/A
4:55 pm 16:55 Partly Cloudy 84 29 70 21.3 63 63 SSE 12 19 29.85 1011 10 16 N/A
5:15 pm 17:15 Partly Cloudy 83 28.5 70 21 64 64 SE 10 17 29.85 1011 10 16 N/A
5:35 pm 17:35 Partly Cloudy 84 29 71 21.6 64 64 SSE 12 19 29.85 1011 10 16 N/A
5:55 pm 17:55 Partly Cloudy 84 28.7 72 22.2 68 68 SE 10 17 29.85 1011 10 16 N/A
6:15 pm 18:15 Partly Cloudy 85 29.2 71 21.8 64 64 SSE 12 19 29.85 1011 10 16 N/A
6:35 pm 18:35 Partly Cloudy 84 29 72 22.1 66 66 SE 13 20 29.83 1010 10 16 N/A
6:55 pm 18:55 Partly Cloudy 84 28.8 69 20.8 62 62 SSE 15 24 29.83 1010 10 16 N/A
7:15 pm 19:15 Partly Cloudy 82 27.7 70 21 67 67 SSE 10 17 29.83 1010 10 16 N/A
7:35 pm 19:35 Sunny 81 27.4 71 21.4 70 70 SSE 8 13 29.85 1011 10 16 N/A
7:55 pm 19:55 Sunny 82 27.5 71 21.4 69 69 SE 8 13 29.83 1010 10 16 N/A
8:15 pm 20:15 Sunny 81 27.1 70 21.1 70 70 SE 10 17 29.85 1011 10 16 N/A
8:35 pm 20:35 Sunny 80 26.5 70 20.9 71 71 SE 8 13 29.88 1012 10 16 N/A
8:55 pm 20:55 Sunny 79 25.9 70 20.9 74 74 SE 8 13 29.88 1012 10 16 N/A
9:15 pm 21:15 Clear 78 25.6 69 20.8 75 75 ESE 12 19 29.85 1011 10 16 N/A
9:35 pm 21:35 Clear 78 25.3 70 21 77 77 SE 9 15 29.88 1012 10 16 N/A
9:55 pm 21:55 Clear 77 24.8 69 20.8 79 79 SE 10 17 29.88 1012 10 16 N/A
10:15 pm 22:15 Clear 76 24.6 69 20.7 79 79 SE 10 17 29.88 1012 10 16 N/A
10:35 pm 22:35 Clear 76 24.5 69 20.7 79 79 ESE 9 15 29.88 1012 10 16 N/A
10:55 pm 22:55 Clear 75 24 69 20.5 81 81 SE 9 15 29.91 1013 10 16 N/A
11:15 pm 23:15 Clear 75 23.7 69 20.5 82 82 SE 8 13 29.91 1013 10 16 N/A
11:35 pm 23:35 Clear 73 22.6 68 20.2 86 86 E 7 11 29.94 1014 10 16 N/A
11:55 pm 23:55 Clear 73 22.6 69 20.5 88 88 ESE 7 11 29.94 1014 10 16 N/A

Powered by AerisWeather